Location: Montreal
(45.5087°N, 73.5540°W)
Time: 00:04:39
(UTC-04:00)

ISS - Pass Details

Date: 17 May 2026
Orbit: 415 x 423 km, 51.6° (Epoch: 10 June)

Event Time Altitude Azimuth Distance (km) Brightness Sun altitude
Rises 23:26:40 0° 298° (WNW) 2,358 0.8 -22.2°
Reaches altitude 10° 23:28:46 10° 299° (WNW) 1,493 -0.3 -22.3°
Enters shadow 23:31:12 45° 300° (WNW) 576 -2.8 -22.5°
